Showing default

ORBCOMM FM 116, 41189

Orbit data source: Space-Track

ORBCOMM FM 116, 41189 is a payload satellite owned by Orbcomm (US) in LEO that was launched on Tue, 22 Dec 2015 UTC via an FALCON 9 launch vehicle from the Air Force Eastern Test Range (AFETR). Payload-class satellites include a variety of spacecraft equipped with specific instruments for various scientific and technological missions. These include communications satellites like Starlink; space stations such as the ISS; scientific satellites like the Hubble; Earth observation satellites from companies like Planet Labs, Umbra, and HawkEye 360; GPS; miniature CubeSats for education and research; and military/defense satellites.

Loading next visibility...
Identifier
41189, 2015-081L
Orbit
LEO
Country
Flag of USUS / ORB
Related business
Manufacturer
SNC Louisville
Mission
Operational Commercial Communications
Bus & Motor
SN-100A, Unknown motor
Mass
172 kg wet, 158 kg dry
Launch date (UTC)
2015-12-22 (10 years ago)
Launch vehicle
FALCON 9
Launch site
Air Force Eastern Test Range (AFETR)
Object type
Payload
Rocket body
Debris
Shape & HBR
Box + 1 Pan + 1 Ant, 6.5 m
Radar Cross Section
2.222 m², Medium (>0.1 m² and < 1m²)

Expand to show TLE details & history
Last TLE update: 1 day ago

TLE from 1 day ago
0 ORBCOMM FM 116
1 41189U 15081L   25261.03005000  .00000666  00000-0  17888-3 0  9995
2 41189  47.0015 117.0115 0002005 237.3481 122.7211 14.58383971519205
Epoch: 2025-09-18T00:43Z
TLE epoch observation values (Epoch: 2025-09-18T00:43:16.32Z)
Latitude
-0.00002°
Longitude
108.99598°
Altitude
699.379 km
Speed
7.507 km/s
True Right ascension
07h 48m 02s
True Declination
0° 00' 00"
Sunlit
Object was in daylight at epoch
Visualization orbit readout
Latitude
Unknown
Longitude
Unknown
Altitude
Unknown
Speed
Unknown
Apparent Right ascension
Unknown
Apparent Declination
Unknown
Sunlit
N/A
Visualization observer readout
Local Sidereal Time
21:17:45
Azimuth
Unknown
Elevation
Unknown
Doppler factor
Unknown
Orbital elements
Apogee altitude
701.05 km
Perigee altitude
698.212 km
Semi-major axis
7,077.768 km
Eccentricity
0.0002
Inclination
47.0015°
RAAN
117.0115°
Arg. of periapsis
237.3481°
True anomaly
122.74043°
Mean anomaly
122.7211°
Eccentric anomaly
122.73076°
Mean motion
3.64501 °/min
Orbital period
98.77 mins
BSTAR
0.00017888
Loading maneuver chart data...
Computing Atmospheric mass density...
Loading historical data...
Loading historical data...
Loading historical data...
Loading historical data...
Loading historical data...
Loading historical data...
Loading historical data...

Documentation

Showing up to 5 results
|